EW6292 Weather Reports


Display with metric or nautical units.
time (UTC)temp
F
wind
direction
speed
MPH
gust
MPH
rain 1hr
in
rain 24hr
in
rain mn
in
humidity
%
barometer
mb
20260905234548 92 5 0.0 0.0 0.00 0.00 0.00 58 1009.9
20260905234308 93 5 0.0 0.0 0.00 0.00 0.00 57 1009.9
20260905233535 93 5 0.0 0.0 0.00 0.00 0.00 56 1009.8
20260905233032 94 5 0.0 0.0 0.00 0.00 0.00 56 1009.8
20260905232523 95 5 0.0 0.0 0.00 0.00 0.00 55 1009.8
20260905232018 95 5 0.0 0.0 0.00 0.00 0.00 53 1009.7
20260905231512 96 5 0.0 0.0 0.00 0.00 0.00 51 1009.7
20260905231005 97 5 0.0 0.0 0.00 0.00 0.00 49 1009.7
20260905230500 98 5 0.0 0.0 0.00 0.00 0.00 48 1009.7
20260905225952 99 5 0.0 0.0 0.00 0.00 0.00 48 1009.6
20260905225446 100 5 0.0 0.0 0.00 0.00 0.00 46 1009.6
20260905224939 100 5 0.0 0.0 0.00 0.00 0.00 46 1009.6
20260905224658 101 36 0.0 0.0 0.00 0.00 0.00 46 1009.6
20260905224149 101 173 0.0 0.0 0.00 0.00 0.00 45 1009.7
20260905223421 101 173 0.0 3.0 0.00 0.00 0.00 45 1009.7
20260905223141 101 173 0.0 3.0 0.00 0.00 0.00 44 1009.7
20260905222409 102 49 0.0 1.0 0.00 0.00 0.00 43 1009.8
20260905221904 102 49 0.0 2.0 0.00 0.00 0.00 44 1009.8
20260905221357 102 49 0.0 2.0 0.00 0.00 0.00 43 1009.7
20260905220851 102 5 0.0 1.0 0.00 0.00 0.00 44 1009.9
20260905220348 102 5 1.0 2.0 0.00 0.00 0.00 44 1009.8
20260905215840 103 5 2.0 4.0 0.00 0.00 0.00 41 1009.8
20260905215334 103 40 1.0 4.0 0.00 0.00 0.00 40 1009.7
20260905214828 103 55 1.0 3.0 0.00 0.00 0.00 39 1009.8
20260905214322 103 245 0.0 2.0 0.00 0.00 0.00 42 1009.8
20260905213816 103 18 0.0 1.0 0.00 0.00 0.00 42 1009.9
20260905213309 103 214 0.0 2.0 0.00 0.00 0.00 43 1009.9
20260905212803 103 292 0.0 2.0 0.00 0.00 0.00 41 1010.0
20260905212259 102 283 1.0 3.0 0.00 0.00 0.00 41 1010.0
20260905211751 102 225 2.0 8.0 0.00 0.00 0.00 41 1010.1
20260905211246 102 253 3.0 8.0 0.00 0.00 0.00 42 1010.0
20260905210739 103 327 2.0 5.0 0.00 0.00 0.00 41 1010.1
20260905210501 103 93 1.0 3.0 0.00 0.00 0.00 42 1010.1
20260905205730 103 169 1.0 3.0 0.00 0.00 0.00 45 1010.1
20260905205222 103 169 1.0 3.0 0.00 0.00 0.00 47 1010.1
20260905204716 102 215 1.0 4.0 0.00 0.00 0.00 44 1010.1
20260905204209 102 178 2.0 4.0 0.00 0.00 0.00 44 1010.2
20260905203704 102 211 2.0 6.0 0.00 0.00 0.00 42 1010.3
20260905203158 103 242 2.0 6.0 0.00 0.00 0.00 44 1010.4
20260905202651 102 238 2.0 6.0 0.00 0.00 0.00 44 1010.4
20260905202145 102 171 2.0 6.0 0.00 0.00 0.00 45 1010.5
20260905201639 102 254 1.0 3.0 0.00 0.00 0.00 46 1010.5
20260905201134 102 149 1.0 2.0 0.00 0.00 0.00 49 1010.7
20260905201117 101 124 1.0 2.0 0.00 0.00 0.00 47 1010.9
20260905200122 101 59 1.0 2.0 0.00 0.00 0.00 45 1010.9
20260905195615 101 149 1.0 2.0 0.00 0.00 0.00 45 1011.1
20260905195112 101 5 2.0 3.0 0.00 0.00 0.00 50 1011.1
20260905194828 101 5 1.0 3.0 0.00 0.00 0.00 47 1011.4
20260905194058 101 5 0.0 2.0 0.00 0.00 0.00 47 1011.4
20260905193552 101 84 0.0 0.0 0.00 0.00 0.00 46 1011.4
20260905193045 101 84 0.0 1.0 0.00 0.00 0.00 50 1011.5
20260905192540 101 84 1.0 3.0 0.00 0.00 0.00 48 1011.7
20260905192300 101 84 1.0 3.0 0.00 0.00 0.00 43 1011.7
20260905191527 101 56 1.0 4.0 0.00 0.00 0.00 48 1011.7
20260905191021 101 163 1.0 4.0 0.00 0.00 0.00 51 1011.8
20260905190515 101 190 1.0 4.0 0.00 0.00 0.00 51 1011.9
20260905190009 101 169 1.0 4.0 0.00 0.00 0.00 51 1011.8
20260905185516 100 36 2.0 6.0 0.00 0.00 0.00 44 1011.9
20260905184958 100 243 2.0 6.0 0.00 0.00 0.00 44 1012.0
20260905184454 100 156 1.0 5.0 0.00 0.00 0.00 47 1012.0
20260905184208 99 236 1.0 3.0 0.00 0.00 0.00 52 1012.1
20260905183449 99 111 1.0 4.0 0.00 0.00 0.00 50 1012.1
20260905182944 99 55 2.0 5.0 0.00 0.00 0.00 46 1012.2
20260905182444 98 67 3.0 5.0 0.00 0.00 0.00 47 1012.2
20260905181944 98 17 2.0 5.0 0.00 0.00 0.00 46 1012.3
20260905181444 98 19 1.0 3.0 0.00 0.00 0.00 47 1012.3
20260905181206 98 342 2.0 6.0 0.00 0.00 0.00 51 1012.4
20260905180453 98 5 3.0 6.0 0.00 0.00 0.00 48 1012.5
20260905180104 99 355 3.0 9.0 0.00 0.00 0.00 48 1012.4
20260905180015 100 14 2.0 7.0 0.00 0.00 0.00 48 1012.4
20260905180004 98 355 4.0 9.0 0.00 0.00 0.00 50 1012.5
20260905174437 100 178 2.0 7.0 0.00 0.00 0.00 48 1012.4
20260905174403 101 220 2.0 7.0 0.00 0.00 0.00 49 1012.5
20260905174032 100 263 2.0 7.0 0.00 0.00 0.00 47 1012.5
20260905172937 101 259 1.0 5.0 0.00 0.00 0.00 50 1012.6
20260905172438 101 175 1.0 5.0 0.00 0.00 0.00 47 1012.5
20260905171937 101 179 1.0 4.0 0.00 0.00 0.00 52 1012.7
20260905171438 101 187 1.0 4.0 0.00 0.00 0.00 50 1012.7
20260905170931 101 207 1.0 3.0 0.00 0.00 0.00 50 1012.7
20260905170426 101 166 1.0 3.0 0.00 0.00 0.00 54 1012.9
20260905165923 101 209 1.0 3.0 0.00 0.00 0.00 52 1013.0
20260905165423 100 193 1.0 3.0 0.00 0.00 0.00 48 1013.0
20260905164924 100 170 1.0 3.0 0.00 0.00 0.00 49 1013.0
20260905164424 100 155 1.0 4.0 0.00 0.00 0.00 51 1013.1
20260905163923 99 155 1.0 4.0 0.00 0.00 0.00 51 1013.2
20260905163424 99 170 1.0 4.0 0.00 0.00 0.00 50 1013.2
20260905162924 98 134 1.0 3.0 0.00 0.00 0.00 48 1013.3
20260905162424 98 176 2.0 5.0 0.00 0.00 0.00 52 1013.4
20260905161923 98 203 2.0 5.0 0.00 0.00 0.00 50 1013.5
20260905161901 98 148 2.0 4.0 0.00 0.00 0.00 53 1013.5
20260905160923 98 167 2.0 4.0 0.00 0.00 0.00 52 1013.4
20260905160436 98 171 1.0 4.0 0.00 0.00 0.00 54 1013.6
20260905155924 97 173 1.0 4.0 0.00 0.00 0.00 55 1013.6
20260905155423 97 271 1.0 4.0 0.00 0.00 0.00 54 1013.6
20260905154923 97 163 1.0 3.0 0.00 0.00 0.00 59 1013.5
20260905154424 96 185 1.0 3.0 0.00 0.00 0.00 57 1013.5
20260905153926 96 126 1.0 3.0 0.00 0.00 0.00 56 1013.6
20260905153424 95 218 1.0 3.0 0.00 0.00 0.00 59 1013.7
20260905153147 95 161 1.0 4.0 0.00 0.00 0.00 59 1013.8
20260905152437 94 157 1.0 4.0 0.00 0.00 0.00 60 1013.7
20260905151923 94 184 1.0 4.0 0.00 0.00 0.00 61 1013.7
20260905151422 94 188 1.0 4.0 0.00 0.00 0.00 64 1013.7
20260905150935 93 179 1.0 2.0 0.00 0.00 0.00 63 1013.8
20260905150423 92 150 0.0 2.0 0.00 0.00 0.00 64 1013.8
20260905145921 92 175 0.0 0.0 0.00 0.00 0.00 65 1013.7
20260905145421 91 143 0.0 0.0 0.00 0.00 0.00 64 1013.8
20260905144922 91 198 0.0 0.0 0.00 0.00 0.00 68 1013.6
20260905144421 90 155 0.0 0.0 0.00 0.00 0.00 69 1013.7
20260905143921 90 155 0.0 1.0 0.00 0.00 0.00 69 1013.7
20260905143645 89 140 0.0 1.0 0.00 0.00 0.00 70 1013.6
20260905142921 88 148 0.0 0.0 0.00 0.00 0.00 74 1013.6
20260905142651 87 148 0.0 0.0 0.00 0.00 0.00 75 1013.7
20260905142136 87 148 0.0 0.0 0.00 0.00 0.00 76 1013.6
20260905141417 86 147 0.0 0.0 0.00 0.00 0.00 76 1013.6
20260905140917 85 184 0.0 0.0 0.00 0.00 0.00 80 1013.6
20260905140636 84 227 0.0 0.0 0.00 0.00 0.00 83 1013.6
20260905135918 83 205 0.0 0.0 0.00 0.00 0.00 87 1013.5
20260905135418 82 123 0.0 0.0 0.00 0.00 0.00 90 1013.5
20260905134918 82 119 0.0 0.0 0.00 0.00 0.00 90 1013.6
20260905134417 81 119 0.0 0.0 0.00 0.00 0.00 91 1013.5
20260905133918 80 119 0.0 0.0 0.00 0.00 0.00 92 1013.4
20260905133637 80 67 0.0 0.0 0.00 0.00 0.00 92 1013.4
20260905132918 79 175 0.0 0.0 0.00 0.00 0.00 92 1013.3
20260905132646 79 71 0.0 0.0 0.00 0.00 0.00 92 1013.4
20260905131917 78 130 0.0 0.0 0.00 0.00 0.00 92 1013.5
20260905131417 78 130 0.0 0.0 0.00 0.00 0.00 92 1013.3
20260905130917 78 130 0.0 0.0 0.00 0.00 0.00 92 1013.3
20260905130415 77 130 0.0 0.0 0.00 0.00 0.00 92 1013.3
20260905125915 77 130 0.0 0.0 0.00 0.00 0.00 92 1013.2
20260905125413 76 130 0.0 0.0 0.00 0.00 0.00 92 1013.2
20260905124906 76 130 0.0 0.0 0.00 0.00 0.00 92 1013.1
20260905124400 75 130 0.0 0.0 0.00 0.00 0.00 92 1013.1
20260905123854 75 130 0.0 0.0 0.00 0.00 0.00 92 1013.0
20260905123351 75 130 0.0 0.0 0.00 0.00 0.00 91 1013.0
20260905122842 74 130 0.0 0.0 0.00 0.00 0.00 91 1013.0
20260905122557 74 130 0.0 0.0 0.00 0.00 0.00 91 1012.9
20260905121830 74 130 0.0 0.0 0.00 0.00 0.00 91 1013.0
20260905121327 74 130 0.0 0.0 0.00 0.00 0.00 91 1012.9
20260905120818 74 130 0.0 0.0 0.00 0.00 0.00 91 1013.0
20260905120539 74 130 0.0 0.0 0.00 0.00 0.00 91 1012.9
20260905115807 74 130 0.0 0.0 0.00 0.00 0.00 91 1012.9
20260905115301 74 130 0.0 0.0 0.00 0.00 0.00 91 1013.0
20260905114754 74 130 0.0 0.0 0.00 0.00 0.00 91 1012.9
20260905114248 74 130 0.0 0.0 0.00 0.00 0.00 91 1013.0
20260905113747 74 130 0.0 0.0 0.00 0.00 0.00 91 1012.9
20260905113247 74 130 0.0 0.0 0.00 0.00 0.00 91 1012.9
20260905112746 74 130 0.0 0.0 0.00 0.00 0.00 91 1012.9
20260905112509 74 130 0.0 0.0 0.00 0.00 0.00 91 1012.9
20260905111744 74 130 0.0 0.0 0.00 0.00 0.00 91 1012.8
20260905111242 74 130 0.0 0.0 0.00 0.00 0.00 91 1012.8
20260905110756 75 130 0.0 0.0 0.00 0.00 0.00 91 1012.8
20260905110256 75 130 0.0 0.0 0.00 0.00 0.00 91 1012.9
20260905105743 75 130 0.0 0.0 0.00 0.00 0.00 91 1012.8
20260905105243 75 130 0.0 0.0 0.00 0.00 0.00 91 1012.8
20260905104741 75 130 0.0 0.0 0.00 0.00 0.00 91 1012.7
20260905104239 74 130 0.0 0.0 0.00 0.00 0.00 90 1012.7
20260905103737 75 130 0.0 0.0 0.00 0.00 0.00 90 1012.6
20260905103724 75 130 0.0 0.0 0.00 0.00 0.00 90 1012.6
20260905102737 75 130 0.0 0.0 0.00 0.00 0.00 90 1012.6
20260905102237 75 130 0.0 0.0 0.00 0.00 0.00 90 1012.6
20260905101735 75 130 0.0 0.0 0.00 0.00 0.00 90 1012.6
20260905101236 75 130 0.0 0.0 0.00 0.00 0.00 90 1012.6
20260905100732 75 130 0.0 0.0 0.00 0.00 0.00 90 1012.6
20260905100226 75 130 0.0 0.0 0.00 0.00 0.00 90 1012.5
20260905095721 75 130 0.0 0.0 0.00 0.00 0.00 90 1012.4
20260905095214 75 130 0.0 0.0 0.00 0.00 0.00 90 1012.5
20260905094937 75 130 0.0 0.0 0.00 0.00 0.00 90 1012.5
20260905094426 75 130 0.0 0.0 0.00 0.00 0.00 90 1012.4
20260905093657 75 130 0.0 0.0 0.00 0.00 0.00 90 1012.4
20260905093415 75 130 0.0 0.0 0.00 0.00 0.00 90 1012.5
20260905092644 75 130 0.0 0.0 0.00 0.00 0.00 90 1012.3
20260905092139 75 130 0.0 0.0 0.00 0.00 0.00 90 1012.4
20260905091632 75 130 0.0 0.0 0.00 0.00 0.00 90 1012.3
20260905091126 75 130 0.0 0.0 0.00 0.00 0.00 90 1012.3
20260905090620 75 130 0.0 0.0 0.00 0.00 0.00 89 1012.4
20260905090120 75 130 0.0 0.0 0.00 0.00 0.00 89 1012.4
20260905085609 75 130 0.0 0.0 0.00 0.00 0.00 89 1012.5
20260905085331 75 130 0.0 0.0 0.00 0.00 0.00 89 1012.4
20260905084557 75 130 0.0 0.0 0.00 0.00 0.00 89 1012.3
20260905084314 75 130 0.0 0.0 0.00 0.00 0.00 89 1012.3
20260905083549 75 130 0.0 0.0 0.00 0.00 0.00 89 1012.4
20260905083050 75 130 0.0 0.0 0.00 0.00 0.00 89 1012.3
20260905082549 75 130 0.0 0.0 0.00 0.00 0.00 89 1012.3
20260905082050 75 130 0.0 0.0 0.00 0.00 0.00 89 1012.3
20260905081811 76 130 0.0 0.0 0.00 0.00 0.00 89 1012.4
20260905081049 76 130 0.0 0.0 0.00 0.00 0.00 89 1012.4
20260905080549 76 130 0.0 0.0 0.00 0.00 0.00 89 1012.4
20260905075549 76 130 0.0 0.0 0.00 0.00 0.00 89 1012.4
20260905075102 76 130 0.0 0.0 0.00 0.00 0.00 89 1012.4
20260905074549 76 130 0.0 0.0 0.00 0.00 0.00 89 1012.4
20260905074052 76 130 0.0 0.0 0.00 0.00 0.00 89 1012.4
20260905073549 76 130 0.0 0.0 0.00 0.00 0.00 89 1012.3
20260905073051 76 130 0.0 0.0 0.00 0.00 0.00 89 1012.4
20260905072549 76 130 0.0 0.0 0.00 0.00 0.00 89 1012.4
20260905072050 76 130 0.0 0.0 0.00 0.00 0.00 89 1012.4
20260905071543 77 130 0.0 1.0 0.00 0.00 0.00 89 1012.4
20260905071037 77 130 0.0 1.0 0.00 0.00 0.00 89 1012.4
20260905070531 77 130 0.0 0.0 0.00 0.00 0.00 88 1012.5
20260905070024 77 130 0.0 0.0 0.00 0.00 0.00 88 1012.5
20260905065519 77 130 0.0 1.0 0.00 0.00 0.00 88 1012.5
20260905065244 77 130 0.0 1.0 0.00 0.00 0.00 88 1012.5
20260905064507 77 32 0.0 0.0 0.00 0.00 0.00 88 1012.4
20260905064224 77 32 0.0 0.0 0.00 0.00 0.00 88 1012.5
20260905063716 77 32 0.0 0.0 0.00 0.00 0.00 88 1012.4
20260905062949 77 32 0.0 0.0 0.00 0.00 0.00 88 1012.4
20260905062442 77 32 0.0 0.0 0.00 0.00 0.00 88 1012.5
20260905061937 77 32 0.0 0.0 0.00 0.00 0.00 88 1012.6
20260905061443 77 32 0.0 0.0 0.00 0.00 0.00 88 1012.5
20260905060925 78 32 0.0 0.0 0.00 0.00 0.00 87 1012.7
20260905060418 78 32 0.0 0.0 0.00 0.00 0.00 87 1012.7
20260905055919 78 32 0.0 0.0 0.00 0.00 0.00 87 1012.6
20260905055906 78 32 0.0 0.0 0.00 0.00 0.00 87 1012.6
20260905054914 78 32 0.0 0.0 0.00 0.00 0.00 87 1012.8
20260905054413 78 32 0.0 0.0 0.00 0.00 0.00 87 1012.8
20260905053911 78 32 0.0 0.0 0.00 0.00 0.00 87 1012.7
20260905053411 78 32 0.0 0.0 0.00 0.00 0.00 87 1012.7
20260905052911 78 32 0.0 0.0 0.00 0.00 0.00 87 1012.8
20260905052633 78 32 0.0 0.0 0.00 0.00 0.00 87 1012.8
20260905051907 78 32 0.0 0.0 0.00 0.00 0.00 87 1012.8
20260905051405 78 32 0.0 0.0 0.00 0.00 0.00 87 1012.8
20260905050904 78 32 0.0 0.0 0.00 0.00 0.00 86 1012.8
20260905050404 79 32 0.0 0.0 0.00 0.00 0.00 86 1012.7
20260905045905 79 32 0.0 0.0 0.00 0.00 0.00 86 1012.8
20260905045627 79 32 0.0 0.0 0.00 0.00 0.00 85 1012.7
20260905044902 79 32 0.0 0.0 0.00 0.00 0.00 85 1012.7
20260905044620 79 32 0.0 0.0 0.00 0.00 0.00 85 1012.8
20260905044122 79 32 0.0 0.0 0.00 0.00 0.00 85 1012.9
20260905043356 79 32 0.0 0.0 0.00 0.00 0.00 85 1013.0
20260905042854 79 32 0.0 0.0 0.00 0.00 0.00 84 1013.0
20260905042354 79 32 0.0 0.0 0.00 0.00 0.00 85 1013.0
20260905041850 79 32 0.0 0.0 0.00 0.00 0.00 85 1013.0
20260905041351 80 32 0.0 0.0 0.00 0.00 0.00 85 1013.1
20260905040851 80 32 0.0 0.0 0.00 0.00 0.00 84 1013.1
20260905040350 80 32 0.0 0.0 0.00 0.00 0.00 84 1013.2
20260905040339 80 32 0.0 0.0 0.00 0.00 0.00 84 1013.2
20260905035351 80 32 0.0 0.0 0.00 0.00 0.00 85 1013.3
20260905035120 80 32 0.0 0.0 0.00 0.00 0.00 85 1013.2
20260905034351 80 32 0.0 0.0 0.00 0.00 0.00 85 1013.2
20260905033850 80 32 0.0 0.0 0.00 0.00 0.00 85 1013.2
20260905033350 80 32 0.0 0.0 0.00 0.00 0.00 85 1013.2
20260905032853 80 32 0.0 0.0 0.00 0.00 0.00 84 1013.1
20260905032351 80 32 0.0 0.0 0.00 0.00 0.00 84 1013.2
20260905031853 80 32 0.0 0.0 0.00 0.00 0.00 83 1013.2
20260905031618 81 32 0.0 0.0 0.00 0.00 0.00 82 1013.2
20260905030850 81 32 0.0 0.0 0.00 0.00 0.00 83 1013.2
20260905030349 81 32 0.0 0.0 0.00 0.00 0.00 83 1013.1
20260905025850 81 32 0.0 0.0 0.00 0.00 0.00 83 1013.2
20260905025348 81 32 0.0 0.0 0.00 0.00 0.00 82 1013.4
20260905025107 81 32 0.0 2.0 0.00 0.00 0.00 82 1013.3
20260905024836 81 32 0.0 2.0 0.00 0.00 0.00 82 1013.2
20260905023845 81 32 0.0 0.0 0.00 0.00 0.00 82 1013.3
20260905023344 81 32 0.0 0.0 0.00 0.00 0.00 81 1013.2
20260905023104 82 32 0.0 0.0 0.00 0.00 0.00 81 1013.2
20260905022345 82 32 0.0 0.0 0.00 0.00 0.00 80 1013.3
20260905021845 82 32 0.0 0.0 0.00 0.00 0.00 80 1013.2
20260905021602 82 32 0.0 0.0 0.00 0.00 0.00 79 1013.1
20260905020842 82 32 0.0 0.0 0.00 0.00 0.00 78 1013.0
20260905020342 82 32 0.0 0.0 0.00 0.00 0.00 78 1013.0
20260905015843 83 32 0.0 0.0 0.00 0.00 0.00 77 1012.9
20260905015343 83 32 0.0 0.0 0.00 0.00 0.00 76 1012.8
20260905014846 83 32 0.0 0.0 0.00 0.00 0.00 76 1012.8
20260905014355 83 32 0.0 0.0 0.00 0.00 0.00 75 1012.7
20260905013843 83 32 0.0 0.0 0.00 0.00 0.00 75 1012.7
20260905013344 83 32 0.0 0.0 0.00 0.00 0.00 74 1012.7
20260905012855 84 32 0.0 0.0 0.00 0.00 0.00 73 1012.7
20260905012605 84 32 0.0 0.0 0.00 0.00 0.00 72 1012.7
20260905011842 84 32 0.0 0.0 0.00 0.00 0.00 72 1012.6
20260905011342 85 32 0.0 0.0 0.00 0.00 0.00 71 1012.5
20260905010842 85 32 0.0 0.0 0.00 0.00 0.00 71 1012.5
20260905010343 85 32 0.0 0.0 0.00 0.00 0.00 71 1012.4
20260905005844 86 32 0.0 0.0 0.00 0.00 0.00 70 1012.4
20260905005355 86 32 0.0 0.0 0.00 0.00 0.00 69 1012.3
20260905004843 86 32 0.0 0.0 0.00 0.00 0.00 69 1012.3
20260905004355 87 32 0.0 0.0 0.00 0.00 0.00 69 1012.3
20260905003842 87 32 0.0 0.0 0.00 0.00 0.00 68 1012.4
20260905003342 88 32 0.0 0.0 0.00 0.00 0.00 67 1012.3
20260905003106 88 32 0.0 0.0 0.00 0.00 0.00 66 1012.3
20260905002343 89 32 0.0 0.0 0.00 0.00 0.00 65 1012.4
20260905002108 90 32 0.0 0.0 0.00 0.00 0.00 65 1012.3
20260905001340 90 32 0.0 0.0 0.00 0.00 0.00 65 1012.1
20260905000839 91 32 0.0 0.0 0.00 0.00 0.00 64 1012.1
20260905000333 91 32 0.0 0.0 0.00 0.00 0.00 63 1012.1
20260904235827 92 32 0.0 0.0 0.00 0.00 0.00 63 1012.0
20260904235321 92 32 0.0 0.0 0.00 0.00 0.00 62 1012.1